Time,TemperatureF,DewpointF,PressureIn,WindDirection,WindDirectionDegrees,WindSpeedMPH,WindSpeedGustMPH,Humidity,HourlyPrecipIn,Conditions,Clouds,dailyrainin,SoftwareType,DateUTC
2014-04-17 00:00:00,44.2,32.0,28.64,SSW,213,1.0,3.0,62,0.00,CLR,,0.00,WeatherDisplay:10.37,2014-04-17 05:00:00,
2014-04-17 00:05:00,44.4,32.2,28.64,SSW,193,1.0,2.0,62,0.00,CLR,,0.00,WeatherDisplay:10.37,2014-04-17 05:05:00,
2014-04-17 00:10:00,45.1,32.0,28.64,SSW,199,2.0,3.0,60,0.00,CLR,,0.00,WeatherDisplay:10.37,2014-04-17 05:10:00,
2014-04-17 00:15:00,44.7,32.0,28.64,SSW,201,2.0,3.0,61,0.00,CLR,,0.00,WeatherDisplay:10.37,2014-04-17 05:15:00,
2014-04-17 00:20:00,44.6,32.0,28.64,SW,224,2.0,3.0,61,0.00,CLR,,0.00,WeatherDisplay:10.37,2014-04-17 05:20:00,
2014-04-17 00:25:00,44.4,32.2,28.64,SW,230,2.0,3.0,62,0.00,CLR,,0.00,WeatherDisplay:10.37,2014-04-17 05:25:00,
2014-04-17 00:30:00,44.2,32.4,28.64,SW,230,2.0,2.0,63,0.00,CLR,,0.00,WeatherDisplay:10.37,2014-04-17 05:30:00,
2014-04-17 00:35:00,44.2,32.4,28.64,SW,224,0.0,2.0,63,0.00,CLR,,0.00,WeatherDisplay:10.37,2014-04-17 05:35:00,
2014-04-17 00:40:00,44.1,32.3,28.64,SW,219,2.0,3.0,63,0.00,CLR,,0.00,WeatherDisplay:10.37,2014-04-17 05:40:00,
2014-04-17 00:45:00,44.2,32.0,28.64,SW,231,2.0,3.0,62,0.00,CLR,,0.00,WeatherDisplay:10.37,2014-04-17 05:45:00,
2014-04-17 00:50:00,44.2,32.0,28.64,SW,223,2.0,3.0,62,0.00,CLR,,0.00,WeatherDisplay:10.37,2014-04-17 05:50:00,
2014-04-17 00:55:00,44.6,32.0,28.64,SSW,210,2.0,4.0,61,0.00,CLR,,0.00,WeatherDisplay:10.37,2014-04-17 05:55:00,
2014-04-17 01:00:00,44.2,32.0,28.64,SSW,206,1.0,2.0,62,0.00,CLR,,0.00,WeatherDisplay:10.37,2014-04-17 06:00:00,
2014-04-17 01:05:00,43.9,31.7,28.65,SSW,203,1.0,2.0,62,0.00,CLR,,0.00,WeatherDisplay:10.37,2014-04-17 06:05:00,
2014-04-17 01:10:00,43.7,31.9,28.65,South,190,1.0,2.0,63,0.00,CLR,,0.00,WeatherDisplay:10.37,2014-04-17 06:10:00,
2014-04-17 01:15:00,43.7,32.3,28.65,SSW,200,1.0,2.0,64,0.00,CLR,,0.00,WeatherDisplay:10.37,2014-04-17 06:15:00,
2014-04-17 01:20:00,44.2,32.0,28.65,South,191,2.0,3.0,62,0.00,CLR,,0.00,WeatherDisplay:10.37,2014-04-17 06:20:00,
2014-04-17 01:25:00,43.7,32.3,28.64,SSW,196,2.0,3.0,64,0.00,CLR,,0.00,WeatherDisplay:10.37,2014-04-17 06:25:00,
2014-04-17 01:30:00,43.7,32.3,28.64,South,180,2.3,2.3,64,0.00,CLR,,0.00,WeatherDisplay:10.37,2014-04-17 06:30:00,
2014-04-17 01:35:00,43.9,32.1,28.64,SW,225,1.2,1.7,63,0.00,CLR,,0.00,WeatherDisplay:10.37,2014-04-17 06:35:00,
2014-04-17 01:40:00,43.7,31.9,28.65,SSE,158,1.2,1.2,63,0.00,CLR,,0.00,WeatherDisplay:10.37,2014-04-17 06:40:00,
2014-04-17 01:45:00,43.5,31.7,28.65,South,176,0.0,1.0,63,0.00,CLR,,0.00,WeatherDisplay:10.37,2014-04-17 06:45:00,
2014-04-17 01:50:00,43.5,31.7,28.65,South,180,0.0,0.0,63,0.00,CLR,,0.00,WeatherDisplay:10.37,2014-04-17 06:50:00,
2014-04-17 01:55:00,42.9,31.6,28.65,South,182,0.0,0.0,64,0.00,CLR,,0.00,WeatherDisplay:10.37,2014-04-17 06:55:00,
2014-04-17 02:00:00,42.5,31.6,28.65,South,189,0.0,0.0,65,0.00,CLR,,0.00,WeatherDisplay:10.37,2014-04-17 07:00:00,
2014-04-17 02:05:00,42.3,31.7,28.65,South,191,0.0,1.0,66,0.00,CLR,,0.00,WeatherDisplay:10.37,2014-04-17 07:05:00,
2014-04-17 02:10:00,42.3,31.7,28.65,SSW,194,0.0,2.0,66,0.00,CLR,,0.00,WeatherDisplay:10.37,2014-04-17 07:10:00,
2014-04-17 02:15:00,42.6,31.7,28.65,South,188,0.0,2.0,65,0.00,CLR,,0.00,WeatherDisplay:10.37,2014-04-17 07:15:00,
2014-04-17 02:20:00,42.4,31.5,28.65,South,176,0.0,0.0,65,0.00,CLR,,0.00,WeatherDisplay:10.37,2014-04-17 07:20:00,
2014-04-17 02:25:00,42.1,31.2,28.65,South,177,0.0,0.0,65,0.00,CLR,,0.00,WeatherDisplay:10.37,2014-04-17 07:25:00,
2014-04-17 02:30:00,42.3,31.4,28.66,South,184,0.0,2.0,65,0.00,CLR,,0.00,WeatherDisplay:10.37,2014-04-17 07:30:00,
2014-04-17 02:35:00,41.8,31.3,28.66,South,174,0.0,2.0,66,0.00,CLR,,0.00,WeatherDisplay:10.37,2014-04-17 07:35:00,
2014-04-17 02:40:00,41.7,31.2,28.66,South,178,1.0,2.0,66,0.00,CLR,,0.00,WeatherDisplay:10.37,2014-04-17 07:40:00,
2014-04-17 02:45:00,41.2,31.4,28.66,SSW,196,1.0,2.0,68,0.00,CLR,,0.00,WeatherDisplay:10.37,2014-04-17 07:45:00,
2014-04-17 02:50:00,41.0,31.6,28.65,SSW,203,0.0,1.0,69,0.00,CLR,,0.00,WeatherDisplay:10.37,2014-04-17 07:50:00,
2014-04-17 02:55:00,40.8,31.4,28.65,SSW,203,0.0,2.0,69,0.00,CLR,,0.00,WeatherDisplay:10.37,2014-04-17 07:55:00,
2014-04-17 03:00:00,40.6,31.2,28.66,South,191,0.0,0.0,69,0.00,CLR,,0.00,WeatherDisplay:10.37,2014-04-17 08:00:00,
2014-04-17 03:05:00,40.6,31.6,28.66,SSW,199,0.0,0.0,70,0.00,CLR,,0.00,WeatherDisplay:10.37,2014-04-17 08:05:00,
2014-04-17 03:10:00,40.5,31.5,28.66,SSW,205,0.0,0.0,70,0.00,CLR,,0.00,WeatherDisplay:10.37,2014-04-17 08:10:00,
2014-04-17 03:15:00,40.1,31.1,28.66,SSW,203,0.0,0.0,70,0.00,CLR,,0.00,WeatherDisplay:10.37,2014-04-17 08:15:00,
2014-04-17 03:20:00,40.1,31.4,28.66,SSW,207,1.0,2.0,71,0.00,CLR,,0.00,WeatherDisplay:10.37,2014-04-17 08:20:00,
2014-04-17 03:25:00,40.1,31.4,28.67,SW,220,0.0,2.0,71,0.00,CLR,,0.00,WeatherDisplay:10.37,2014-04-17 08:25:00,
2014-04-17 03:30:00,40.1,31.4,28.67,SSW,205,1.0,2.0,71,0.00,CLR,,0.00,WeatherDisplay:10.37,2014-04-17 08:30:00,
2014-04-17 03:35:00,39.8,31.2,28.67,SSW,210,0.0,2.0,71,0.00,CLR,,0.00,WeatherDisplay:10.37,2014-04-17 08:35:00,
2014-04-17 03:40:00,39.7,31.1,28.67,SSW,203,0.0,1.0,71,0.00,CLR,,0.00,WeatherDisplay:10.37,2014-04-17 08:40:00,
2014-04-17 03:45:00,39.7,31.1,28.67,South,191,0.0,1.0,71,0.00,CLR,,0.00,WeatherDisplay:10.37,2014-04-17 08:45:00,
2014-04-17 03:50:00,39.7,31.1,28.67,South,172,0.0,1.0,71,0.00,CLR,,0.00,WeatherDisplay:10.37,2014-04-17 08:50:00,
2014-04-17 03:55:00,39.2,30.6,28.67,ESE,112,0.0,0.0,71,0.00,CLR,,0.00,WeatherDisplay:10.37,2014-04-17 08:55:00,
2014-04-17 04:00:00,38.5,30.3,28.67,NE,36,0.0,0.0,72,0.00,CLR,,0.00,WeatherDisplay:10.37,2014-04-17 09:00:00,
2014-04-17 04:05:00,38.5,30.3,28.68,WNW,292,0.0,0.0,72,0.00,CLR,,0.00,WeatherDisplay:10.37,2014-04-17 09:05:00,
2014-04-17 04:10:00,38.7,30.4,28.68,WNW,292,0.0,0.0,72,0.00,CLR,,0.00,WeatherDisplay:10.37,2014-04-17 09:10:00,
2014-04-17 04:15:00,38.7,30.4,28.68,WNW,292,0.0,0.0,72,0.00,CLR,,0.00,WeatherDisplay:10.37,2014-04-17 09:15:00,
2014-04-17 04:20:00,38.7,30.1,28.68,WNW,292,0.0,0.0,71,0.00,CLR,,0.00,WeatherDisplay:10.37,2014-04-17 09:20:00,
2014-04-17 04:25:00,38.5,29.9,28.68,WNW,292,0.0,0.0,71,0.00,CLR,,0.00,WeatherDisplay:10.37,2014-04-17 09:25:00,
2014-04-17 04:26:00,38.5,30.3,28.68,WNW,292,0.0,0.0,72,0.00,CLR,,0.00,WeatherDisplay:10.37,2014-04-17 09:26:00,
2014-04-17 04:31:00,38.5,30.3,28.68,WNW,292,0.0,0.0,72,0.00,CLR,,0.00,WeatherDisplay:10.37,2014-04-17 09:31:00,
2014-04-17 04:36:00,38.7,30.4,28.68,SSE,158,0.0,0.0,72,0.00,CLR,,0.00,WeatherDisplay:10.37,2014-04-17 09:36:00,
2014-04-17 04:41:00,38.5,30.3,28.68,SSE,158,0.0,0.0,72,0.00,CLR,,0.00,WeatherDisplay:10.37,2014-04-17 09:41:00,
2014-04-17 04:46:00,38.5,30.3,28.68,South,180,0.0,0.0,72,0.00,CLR,,0.00,WeatherDisplay:10.37,2014-04-17 09:46:00,
2014-04-17 04:51:00,38.5,30.3,28.68,SW,225,0.0,0.0,72,0.00,CLR,,0.00,WeatherDisplay:10.37,2014-04-17 09:51:00,
2014-04-17 04:56:00,38.3,30.4,28.68,SSW,202,0.0,0.0,73,0.00,CLR,,0.00,WeatherDisplay:10.37,2014-04-17 09:56:00,
2014-04-17 05:01:00,38.3,30.4,28.68,SSW,202,0.0,0.0,73,0.00,CLR,,0.00,WeatherDisplay:10.37,2014-04-17 10:01:00,
2014-04-17 05:06:00,38.3,30.4,28.68,SSE,158,0.0,0.0,73,0.00,CLR,,0.00,WeatherDisplay:10.37,2014-04-17 10:06:00,
2014-04-17 05:11:00,38.1,30.2,28.68,South,180,0.0,0.0,73,0.00,CLR,,0.00,WeatherDisplay:10.37,2014-04-17 10:11:00,
2014-04-17 05:16:00,37.9,30.0,28.69,South,180,0.0,0.0,73,0.00,CLR,,0.00,WeatherDisplay:10.37,2014-04-17 10:16:00,
2014-04-17 05:21:00,37.6,29.7,28.69,SW,225,0.0,0.0,73,0.00,CLR,,0.00,WeatherDisplay:10.37,2014-04-17 10:21:00,
2014-04-17 05:26:00,37.2,29.3,28.69,West,270,0.0,0.0,73,0.00,CLR,,0.00,WeatherDisplay:10.37,2014-04-17 10:26:00,
2014-04-17 05:31:00,37.2,29.7,28.69,SW,225,0.0,0.0,74,0.00,CLR,,0.00,WeatherDisplay:10.37,2014-04-17 10:31:00,
2014-04-17 05:36:00,37.8,30.3,28.69,SW,225,0.0,0.0,74,0.00,CLR,,0.00,WeatherDisplay:10.37,2014-04-17 10:36:00,
2014-04-17 05:41:00,37.8,30.3,28.69,South,180,0.0,0.0,74,0.00,CLR,,0.00,WeatherDisplay:10.37,2014-04-17 10:41:00,
2014-04-17 05:46:00,37.4,29.9,28.69,South,180,0.0,0.0,74,0.00,CLR,,0.00,WeatherDisplay:10.37,2014-04-17 10:46:00,
2014-04-17 05:51:00,37.2,30.0,28.69,South,180,0.0,0.0,75,0.00,CLR,,0.00,WeatherDisplay:10.37,2014-04-17 10:51:00,
2014-04-17 05:56:00,37.2,30.0,28.69,SSW,202,0.0,0.0,75,0.00,CLR,,0.00,WeatherDisplay:10.37,2014-04-17 10:56:00,
2014-04-17 06:01:00,37.0,29.8,28.70,SSW,202,0.0,0.0,75,0.00,CLR,,0.00,WeatherDisplay:10.37,2014-04-17 11:01:00,
2014-04-17 06:06:00,37.0,29.8,28.70,SSE,158,0.0,0.0,75,0.00,CLR,,0.00,WeatherDisplay:10.37,2014-04-17 11:06:00,
2014-04-17 06:11:00,37.0,29.8,28.70,SSE,158,0.0,0.0,75,0.00,CLR,,0.00,WeatherDisplay:10.37,2014-04-17 11:11:00,
2014-04-17 06:16:00,36.5,29.3,28.70,SSE,158,0.0,0.0,75,0.00,CLR,,0.00,WeatherDisplay:10.37,2014-04-17 11:16:00,
2014-04-17 06:21:00,36.3,29.1,28.70,South,180,0.0,0.0,75,0.00,CLR,,0.00,WeatherDisplay:10.37,2014-04-17 11:21:00,
2014-04-17 06:26:00,36.9,29.7,28.70,West,270,0.0,0.0,75,0.00,CLR,,0.00,WeatherDisplay:10.37,2014-04-17 11:26:00,
2014-04-17 06:31:00,37.0,29.8,28.70,South,180,0.0,0.0,75,0.00,CLR,,0.00,WeatherDisplay:10.37,2014-04-17 11:31:00,
2014-04-17 06:36:00,37.2,30.0,28.71,South,180,0.0,0.0,75,0.00,CLR,,0.00,WeatherDisplay:10.37,2014-04-17 11:36:00,
2014-04-17 06:41:00,37.2,30.0,28.71,South,180,0.0,0.0,75,0.00,CLR,,0.00,WeatherDisplay:10.37,2014-04-17 11:41:00,
2014-04-17 06:46:00,37.2,30.0,28.71,South,180,0.0,0.0,75,0.00,CLR,,0.00,WeatherDisplay:10.37,2014-04-17 11:46:00,
2014-04-17 06:51:00,37.2,30.3,28.71,South,180,0.0,0.0,76,0.00,CLR,,0.00,WeatherDisplay:10.37,2014-04-17 11:51:00,
2014-04-17 06:56:00,37.2,30.3,28.71,South,180,0.0,0.0,76,0.00,CLR,,0.00,WeatherDisplay:10.37,2014-04-17 11:56:00,
2014-04-17 07:01:00,37.2,30.3,28.72,South,180,0.0,0.0,76,0.00,CLR,,0.00,WeatherDisplay:10.37,2014-04-17 12:01:00,
2014-04-17 07:06:00,37.2,30.3,28.72,South,180,0.0,0.0,76,0.00,CLR,,0.00,WeatherDisplay:10.37,2014-04-17 12:06:00,
2014-04-17 07:11:00,37.4,30.5,28.72,South,180,0.0,0.0,76,0.00,CLR,,0.00,WeatherDisplay:10.37,2014-04-17 12:11:00,
2014-04-17 07:16:00,37.6,30.7,28.72,SSE,158,0.0,0.0,76,0.00,CLR,,0.00,WeatherDisplay:10.37,2014-04-17 12:16:00,
2014-04-17 07:21:00,37.9,31.0,28.72,SSE,158,0.0,0.0,76,0.00,CLR,,0.00,WeatherDisplay:10.37,2014-04-17 12:21:00,
2014-04-17 07:26:00,38.3,31.4,28.73,SSE,158,0.0,0.0,76,0.00,CLR,,0.00,WeatherDisplay:10.37,2014-04-17 12:26:00,
2014-04-17 07:31:00,38.8,31.9,28.73,South,180,0.0,0.0,76,0.00,CLR,,0.00,WeatherDisplay:10.37,2014-04-17 12:31:00,
2014-04-17 07:36:00,39.9,32.9,28.73,SSE,158,0.0,0.0,76,0.00,CLR,,0.00,WeatherDisplay:10.37,2014-04-17 12:36:00,
2014-04-17 07:41:00,40.8,33.8,28.73,SSW,202,0.0,0.0,76,0.00,CLR,,0.00,WeatherDisplay:10.37,2014-04-17 12:41:00,
2014-04-17 07:46:00,41.5,34.5,28.73,South,180,0.0,0.0,76,0.00,CLR,,0.00,WeatherDisplay:10.37,2014-04-17 12:46:00,
2014-04-17 07:51:00,42.3,35.3,28.73,SSW,202,0.0,0.0,76,0.00,CLR,,0.00,WeatherDisplay:10.37,2014-04-17 12:51:00,
2014-04-17 07:56:00,42.4,35.0,28.73,SSE,158,0.0,0.0,75,0.00,CLR,,0.00,WeatherDisplay:10.37,2014-04-17 12:56:00,
2014-04-17 08:01:00,42.4,35.0,28.74,WSW,248,0.0,0.0,75,0.00,CLR,,0.00,WeatherDisplay:10.37,2014-04-17 13:01:00,
2014-04-17 08:06:00,43.5,35.8,28.74,SSE,158,1.2,1.2,74,0.00,CLR,,0.00,WeatherDisplay:10.37,2014-04-17 13:06:00,
2014-04-17 08:11:00,45.0,36.2,28.74,South,180,3.5,3.5,71,0.00,CLR,,0.00,WeatherDisplay:10.37,2014-04-17 13:11:00,
2014-04-17 08:16:00,46.0,37.1,28.74,West,270,2.3,2.3,71,0.00,CLR,,0.00,WeatherDisplay:10.37,2014-04-17 13:16:00,
2014-04-17 08:21:00,46.8,37.2,28.74,WNW,292,2.3,2.3,69,0.00,CLR,,0.00,WeatherDisplay:10.37,2014-04-17 13:21:00,
2014-04-17 08:26:00,46.9,37.3,28.75,SSW,202,1.7,1.7,69,0.00,CLR,,0.00,WeatherDisplay:10.37,2014-04-17 13:26:00,
2014-04-17 08:31:00,47.7,36.9,28.75,SSW,202,3.5,3.5,66,0.00,CLR,,0.00,WeatherDisplay:10.37,2014-04-17 13:31:00,
2014-04-17 08:36:00,48.0,37.6,28.75,SW,225,2.3,2.3,67,0.00,CLR,,0.00,WeatherDisplay:10.37,2014-04-17 13:36:00,
2014-04-17 08:41:00,48.7,38.2,28.75,SSW,202,2.2,2.2,67,0.00,CLR,,0.00,WeatherDisplay:10.37,2014-04-17 13:41:00,
2014-04-17 08:46:00,49.8,38.1,28.75,NNE,22,2.3,2.6,64,0.00,CLR,,0.00,WeatherDisplay:10.37,2014-04-17 13:46:00,
2014-04-17 08:51:00,50.9,38.3,28.76,West,270,3.5,3.5,62,0.00,CLR,,0.00,WeatherDisplay:10.37,2014-04-17 13:51:00,
2014-04-17 08:56:00,51.1,37.3,28.76,SSW,202,4.6,4.6,59,0.00,CLR,,0.00,WeatherDisplay:10.37,2014-04-17 13:56:00,
2014-04-17 09:01:00,51.8,37.5,28.76,South,180,3.7,3.7,58,0.00,CLR,,0.00,WeatherDisplay:10.37,2014-04-17 14:01:00,
2014-04-17 09:06:00,52.3,37.5,28.76,South,180,6.3,6.3,57,0.00,CLR,,0.00,WeatherDisplay:10.37,2014-04-17 14:06:00,
2014-04-17 09:11:00,53.2,38.4,28.76,South,180,4.6,4.6,57,0.00,CLR,,0.00,WeatherDisplay:10.37,2014-04-17 14:11:00,
2014-04-17 09:16:00,54.5,38.2,28.76,South,180,4.6,4.6,54,0.00,CLR,,0.00,WeatherDisplay:10.37,2014-04-17 14:16:00,
2014-04-17 09:21:00,55.2,38.4,28.76,SW,225,4.7,4.7,53,0.00,CLR,,0.00,WeatherDisplay:10.37,2014-04-17 14:21:00,
2014-04-17 09:26:00,56.3,38.9,28.76,SE,135,3.5,3.6,52,0.00,CLR,,0.00,WeatherDisplay:10.37,2014-04-17 14:26:00,
2014-04-17 09:31:00,57.9,39.9,28.76,SE,135,4.7,4.7,51,0.00,CLR,,0.00,WeatherDisplay:10.37,2014-04-17 14:31:00,
2014-04-17 09:36:00,58.3,40.2,28.76,NNW,338,4.6,4.6,51,0.00,CLR,,0.00,WeatherDisplay:10.37,2014-04-17 14:36:00,
2014-04-17 09:41:00,58.3,39.2,28.76,SW,225,4.6,4.6,49,0.00,CLR,,0.00,WeatherDisplay:10.37,2014-04-17 14:41:00,
2014-04-17 09:46:00,58.8,39.1,28.76,ESE,112,4.6,4.6,48,0.00,CLR,,0.00,WeatherDisplay:10.37,2014-04-17 14:46:00,
2014-04-17 09:51:00,59.2,39.5,28.77,NNE,22,3.5,3.5,48,0.00,CLR,,0.00,WeatherDisplay:10.37,2014-04-17 14:51:00,
2014-04-17 09:56:00,60.3,39.4,28.77,SSE,158,4.6,4.6,46,0.00,CLR,,0.00,WeatherDisplay:10.37,2014-04-17 14:56:00,
2014-04-17 10:01:00,61.0,40.1,28.77,SW,225,4.6,4.6,46,0.00,CLR,,0.00,WeatherDisplay:10.37,2014-04-17 15:01:00,
2014-04-17 10:06:00,61.3,40.9,28.77,ESE,112,3.5,3.5,47,0.00,CLR,,0.00,WeatherDisplay:10.37,2014-04-17 15:06:00,
2014-04-17 10:11:00,61.7,40.1,28.77,NW,315,5.8,5.8,45,0.00,CLR,,0.00,WeatherDisplay:10.37,2014-04-17 15:11:00,
2014-04-17 10:16:00,61.2,40.2,28.77,West,270,3.5,3.5,46,0.00,CLR,,0.00,WeatherDisplay:10.37,2014-04-17 15:16:00,
2014-04-17 10:21:00,60.6,38.6,28.77,East,90,4.6,4.6,44,0.00,CLR,,0.00,WeatherDisplay:10.37,2014-04-17 15:21:00,
2014-04-17 10:26:00,61.7,39.6,28.77,SSE,158,2.3,2.3,44,0.00,CLR,,0.00,WeatherDisplay:10.37,2014-04-17 15:26:00,
2014-04-17 10:31:00,60.8,38.7,28.77,ENE,68,2.3,2.5,44,0.00,CLR,,0.00,WeatherDisplay:10.37,2014-04-17 15:31:00,
2014-04-17 10:36:00,61.0,38.3,28.77,NE,45,3.5,3.5,43,0.00,CLR,,0.00,WeatherDisplay:10.37,2014-04-17 15:36:00,
2014-04-17 10:42:00,60.8,38.7,28.77,SW,225,4.6,4.6,44,0.00,CLR,,0.00,WeatherDisplay:10.37,2014-04-17 15:42:00,
2014-04-17 10:47:00,62.6,39.8,28.77,East,90,3.5,3.5,43,0.00,CLR,,0.00,WeatherDisplay:10.37,2014-04-17 15:47:00,
2014-04-17 10:52:00,63.5,40.0,28.78,West,270,3.2,3.2,42,0.00,CLR,,0.00,WeatherDisplay:10.37,2014-04-17 15:52:00,
2014-04-17 10:57:00,62.4,39.6,28.78,East,90,3.5,3.5,43,0.00,CLR,,0.00,WeatherDisplay:10.37,2014-04-17 15:57:00,
2014-04-17 11:02:00,62.8,40.5,28.78,ESE,112,2.3,2.3,44,0.00,CLR,,0.00,WeatherDisplay:10.37,2014-04-17 16:02:00,
2014-04-17 11:07:00,63.1,41.4,28.78,ESE,112,3.5,3.5,45,0.00,CLR,,0.00,WeatherDisplay:10.37,2014-04-17 16:07:00,
2014-04-17 11:12:00,62.8,40.0,28.78,SE,135,4.6,4.6,43,0.00,CLR,,0.00,WeatherDisplay:10.37,2014-04-17 16:12:00,
2014-04-17 11:17:00,62.8,40.0,28.77,SSE,158,4.2,4.2,43,0.00,CLR,,0.00,WeatherDisplay:10.37,2014-04-17 16:17:00,
2014-04-17 11:22:00,64.6,41.0,28.77,SE,135,2.7,2.7,42,0.00,CLR,,0.00,WeatherDisplay:10.37,2014-04-17 16:22:00,
2014-04-17 11:27:00,61.9,38.5,28.78,ESE,112,2.3,2.3,42,0.00,CLR,,0.00,WeatherDisplay:10.37,2014-04-17 16:27:00,
2014-04-17 11:32:00,64.6,41.0,28.78,ENE,68,5.8,5.8,42,0.00,CLR,,0.00,WeatherDisplay:10.37,2014-04-17 16:32:00,
2014-04-17 11:37:00,64.8,39.2,28.78,North,360,1.2,0.0,39,0.00,CLR,,0.00,WeatherDisplay:10.37,2014-04-17 16:37:00,
2014-04-17 11:42:00,62.6,38.6,28.78,NE,45,3.5,3.5,41,0.00,CLR,,0.00,WeatherDisplay:10.37,2014-04-17 16:42:00,
2014-04-17 11:47:00,63.3,41.0,28.78,NNE,22,4.7,4.7,44,0.00,CLR,,0.00,WeatherDisplay:10.37,2014-04-17 16:47:00,
2014-04-17 11:52:00,64.2,39.4,28.77,North,360,3.5,3.5,40,0.00,CLR,,0.00,WeatherDisplay:10.37,2014-04-17 16:52:00,
2014-04-17 11:57:00,64.9,40.0,28.77,NNE,22,4.6,4.6,40,0.00,CLR,,0.00,WeatherDisplay:10.37,2014-04-17 16:57:00,
2014-04-17 12:02:00,64.6,39.7,28.77,NNE,22,5.8,5.8,40,0.00,CLR,,0.00,WeatherDisplay:10.37,2014-04-17 17:02:00,
2014-04-17 12:07:00,63.5,39.4,28.77,NNE,22,1.7,1.7,41,0.00,CLR,,0.00,WeatherDisplay:10.37,2014-04-17 17:07:00,
2014-04-17 12:12:00,66.2,42.4,28.77,ESE,112,2.3,2.3,42,0.00,CLR,,0.00,WeatherDisplay:10.37,2014-04-17 17:12:00,
2014-04-17 12:17:00,65.3,39.7,28.77,SE,135,6.9,6.9,39,0.00,CLR,,0.00,WeatherDisplay:10.37,2014-04-17 17:17:00,
2014-04-17 12:22:00,64.8,39.9,28.77,ESE,112,2.3,2.3,40,0.00,CLR,,0.00,WeatherDisplay:10.37,2014-04-17 17:22:00,
2014-04-17 12:27:00,67.5,40.3,28.77,WSW,248,2.3,2.3,37,0.00,CLR,,0.00,WeatherDisplay:10.37,2014-04-17 17:27:00,
2014-04-17 12:32:00,67.8,41.9,28.77,South,180,4.6,4.6,39,0.00,CLR,,0.00,WeatherDisplay:10.37,2014-04-17 17:32:00,
2014-04-17 12:37:00,65.5,40.5,28.76,NNW,338,4.6,4.6,40,0.00,CLR,,0.00,WeatherDisplay:10.37,2014-04-17 17:37:00,
2014-04-17 12:42:00,64.6,39.7,28.76,ESE,112,3.5,3.5,40,0.00,CLR,,0.00,WeatherDisplay:10.37,2014-04-17 17:42:00,
2014-04-17 12:47:00,65.3,39.0,28.76,South,180,3.7,3.7,38,0.00,CLR,,0.00,WeatherDisplay:10.37,2014-04-17 17:47:00,
2014-04-17 12:52:00,66.0,41.6,28.76,SSW,202,2.3,2.3,41,0.00,CLR,,0.00,WeatherDisplay:10.37,2014-04-17 17:52:00,
2014-04-17 12:57:00,65.7,40.1,28.76,ENE,68,2.3,2.3,39,0.00,CLR,,0.00,WeatherDisplay:10.37,2014-04-17 17:57:00,
2014-04-17 13:02:00,64.9,39.3,28.76,North,360,4.7,4.7,39,0.00,CLR,,0.00,WeatherDisplay:10.37,2014-04-17 18:02:00,
2014-04-17 13:07:00,65.5,40.5,28.76,NNE,22,2.7,2.7,40,0.00,CLR,,0.00,WeatherDisplay:10.37,2014-04-17 18:07:00,
2014-04-17 13:12:00,65.3,39.7,28.76,NNE,22,4.6,4.6,39,0.00,CLR,,0.00,WeatherDisplay:10.37,2014-04-17 18:12:00,
2014-04-17 13:17:00,65.1,39.5,28.76,North,360,3.5,3.5,39,0.00,CLR,,0.00,WeatherDisplay:10.37,2014-04-17 18:17:00,
2014-04-17 13:22:00,67.3,40.1,28.76,North,360,2.3,2.3,37,0.00,CLR,,0.00,WeatherDisplay:10.37,2014-04-17 18:22:00,
2014-04-17 13:27:00,68.0,40.7,28.75,South,180,4.6,4.6,37,0.00,CLR,,0.00,WeatherDisplay:10.37,2014-04-17 18:27:00,
2014-04-17 13:32:00,68.7,40.7,28.75,South,180,6.9,6.9,36,0.00,CLR,,0.00,WeatherDisplay:10.37,2014-04-17 18:32:00,
2014-04-17 13:37:00,67.1,39.9,28.75,SSW,202,4.6,4.6,37,0.00,CLR,,0.00,WeatherDisplay:10.37,2014-04-17 18:37:00,
2014-04-17 13:42:00,67.1,39.2,28.75,NE,45,3.5,3.5,36,0.00,CLR,,0.00,WeatherDisplay:10.37,2014-04-17 18:42:00,
2014-04-17 13:47:00,66.7,40.3,28.75,NW,315,2.3,2.3,38,0.00,CLR,,0.00,WeatherDisplay:10.37,2014-04-17 18:47:00,
2014-04-17 13:52:00,65.8,40.1,28.74,North,360,3.5,3.5,39,0.00,CLR,,0.00,WeatherDisplay:10.37,2014-04-17 18:52:00,
2014-04-17 13:57:00,66.4,40.0,28.74,NNW,338,3.5,3.5,38,0.00,CLR,,0.00,WeatherDisplay:10.37,2014-04-17 18:57:00,
2014-04-17 14:02:00,65.5,39.9,28.74,NE,45,4.7,4.7,39,0.00,CLR,,0.00,WeatherDisplay:10.37,2014-04-17 19:02:00,
2014-04-17 14:07:00,65.7,39.4,28.74,ESE,112,2.7,2.7,38,0.00,CLR,,0.00,WeatherDisplay:10.37,2014-04-17 19:07:00,
2014-04-17 14:12:00,67.1,39.9,28.74,SW,225,2.3,2.3,37,0.00,CLR,,0.00,WeatherDisplay:10.37,2014-04-17 19:12:00,
2014-04-17 14:17:00,66.9,39.1,28.74,East,90,2.3,2.3,36,0.00,CLR,,0.00,WeatherDisplay:10.37,2014-04-17 19:17:00,
2014-04-17 14:22:00,68.2,39.5,28.74,South,180,3.5,3.5,35,0.00,CLR,,0.00,WeatherDisplay:10.37,2014-04-17 19:22:00,
2014-04-17 14:27:00,70.2,42.7,28.73,WSW,248,2.3,2.3,37,0.00,CLR,,0.00,WeatherDisplay:10.37,2014-04-17 19:27:00,
2014-04-17 14:32:00,68.5,41.2,28.73,North,360,2.3,2.3,37,0.00,CLR,,0.00,WeatherDisplay:10.37,2014-04-17 19:32:00,
2014-04-17 14:37:00,68.7,41.4,28.73,East,90,3.5,3.5,37,0.00,CLR,,0.00,WeatherDisplay:10.37,2014-04-17 19:37:00,
2014-04-17 14:42:00,69.1,41.7,28.73,North,360,3.5,3.5,37,0.00,CLR,,0.00,WeatherDisplay:10.37,2014-04-17 19:42:00,
2014-04-17 14:47:00,69.6,40.7,28.73,West,270,1.2,1.2,35,0.00,CLR,,0.00,WeatherDisplay:10.37,2014-04-17 19:47:00,
2014-04-17 14:52:00,69.3,40.5,28.73,NNE,22,3.5,3.5,35,0.00,CLR,,0.00,WeatherDisplay:10.37,2014-04-17 19:52:00,
2014-04-17 14:57:00,68.2,38.7,28.73,NNE,22,2.7,2.7,34,0.00,CLR,,0.00,WeatherDisplay:10.37,2014-04-17 19:57:00,
2014-04-17 15:02:00,68.5,39.8,28.73,NNE,22,2.3,2.3,35,0.00,CLR,,0.00,WeatherDisplay:10.37,2014-04-17 20:02:00,
2014-04-17 15:07:00,69.4,39.8,30.10,SSW,202,1.6,-999.0,34,-99.99,,,0.00,Acu-Link.com,2014-04-17 20:07:00,
2014-04-17 15:12:00,70.5,42.2,28.73,East,90,3.7,3.7,36,0.00,CLR,,0.00,WeatherDisplay:10.37,2014-04-17 20:12:00,
2014-04-17 15:17:00,69.8,40.2,28.73,South,180,3.5,3.5,34,0.00,CLR,,0.00,WeatherDisplay:10.37,2014-04-17 20:17:00,
2014-04-17 15:22:00,69.1,42.4,28.73,NNE,22,5.8,5.8,38,0.00,CLR,,0.00,WeatherDisplay:10.37,2014-04-17 20:22:00,
2014-04-17 15:27:00,69.1,41.0,28.73,NNW,338,2.7,2.7,36,0.00,CLR,,0.00,WeatherDisplay:10.37,2014-04-17 20:27:00,
2014-04-17 15:32:00,68.5,40.5,28.73,NNE,22,9.2,9.2,36,0.00,CLR,,0.00,WeatherDisplay:10.37,2014-04-17 20:32:00,
2014-04-17 15:37:00,70.9,42.6,28.73,SW,225,3.7,3.7,36,0.00,CLR,,0.00,WeatherDisplay:10.37,2014-04-17 20:37:00,
2014-04-17 15:42:00,68.9,41.5,28.73,NNE,22,4.6,4.6,37,0.00,CLR,,0.00,WeatherDisplay:10.37,2014-04-17 20:42:00,
2014-04-17 15:47:00,70.0,42.5,28.73,NW,315,4.6,4.6,37,0.00,CLR,,0.00,WeatherDisplay:10.37,2014-04-17 20:47:00,
2014-04-17 15:52:00,68.7,41.4,28.73,North,360,4.6,4.6,37,0.00,CLR,,0.00,WeatherDisplay:10.37,2014-04-17 20:52:00,
2014-04-17 15:57:00,68.9,40.8,28.73,North,360,2.3,2.3,36,0.00,CLR,,0.00,WeatherDisplay:10.37,2014-04-17 20:57:00,
2014-04-17 16:02:00,68.5,41.2,28.73,NNW,338,2.3,2.3,37,0.00,CLR,,0.00,WeatherDisplay:10.37,2014-04-17 21:02:00,
2014-04-17 16:07:00,67.3,40.8,28.73,NNE,22,3.5,3.5,38,0.00,CLR,,0.00,WeatherDisplay:10.37,2014-04-17 21:07:00,
2014-04-17 16:12:00,66.2,38.4,28.73,ENE,68,2.3,2.3,36,0.00,CLR,,0.00,WeatherDisplay:10.37,2014-04-17 21:12:00,
2014-04-17 16:17:00,67.6,41.7,28.73,NNE,22,4.6,4.6,39,0.00,CLR,,0.00,WeatherDisplay:10.37,2014-04-17 21:17:00,
2014-04-17 16:22:00,66.7,40.9,28.73,NNE,22,4.2,4.2,39,0.00,CLR,,0.00,WeatherDisplay:10.37,2014-04-17 21:22:00,
2014-04-17 16:27:00,66.9,39.8,28.73,NNE,22,3.5,3.5,37,0.00,CLR,,0.00,WeatherDisplay:10.37,2014-04-17 21:27:00,
2014-04-17 16:32:00,66.9,41.1,28.73,NNW,338,6.8,6.8,39,0.00,CLR,,0.00,WeatherDisplay:10.37,2014-04-17 21:32:00,
2014-04-17 16:37:00,66.9,39.1,28.72,NNE,22,3.5,3.5,36,0.00,CLR,,0.00,WeatherDisplay:10.37,2014-04-17 21:37:00,
2014-04-17 16:42:00,68.0,41.4,28.72,NNE,22,4.6,4.6,38,0.00,CLR,,0.00,WeatherDisplay:10.37,2014-04-17 21:42:00,
2014-04-17 16:47:00,65.8,41.4,28.72,NNE,22,4.6,4.6,41,0.00,CLR,,0.00,WeatherDisplay:10.37,2014-04-17 21:47:00,
2014-04-17 16:52:00,66.7,42.9,28.72,NNE,22,5.8,5.8,42,0.00,CLR,,0.00,WeatherDisplay:10.37,2014-04-17 21:52:00,
2014-04-17 16:57:00,65.7,40.7,28.72,NNE,22,4.6,4.6,40,0.00,CLR,,0.00,WeatherDisplay:10.37,2014-04-17 21:57:00,
2014-04-17 17:02:00,65.5,41.8,28.72,NNE,22,5.8,5.8,42,0.00,CLR,,0.00,WeatherDisplay:10.37,2014-04-17 22:02:00,
2014-04-17 17:07:00,64.8,41.2,28.72,NNE,22,8.1,8.1,42,0.00,CLR,,0.00,WeatherDisplay:10.37,2014-04-17 22:07:00,
2014-04-17 17:12:00,65.1,42.0,28.73,NNE,22,5.8,5.8,43,0.00,CLR,,0.00,WeatherDisplay:10.37,2014-04-17 22:12:00,
2014-04-17 17:17:00,64.4,41.4,28.73,NE,45,5.8,5.8,43,0.00,CLR,,0.00,WeatherDisplay:10.37,2014-04-17 22:17:00,
2014-04-17 17:22:00,64.4,41.4,28.73,NNE,22,6.8,6.8,43,0.00,CLR,,0.00,WeatherDisplay:10.37,2014-04-17 22:22:00,
2014-04-17 17:27:00,64.4,42.0,28.73,North,360,6.3,6.3,44,0.00,CLR,,0.00,WeatherDisplay:10.37,2014-04-17 22:27:00,
2014-04-17 17:32:00,63.5,41.8,28.73,NE,45,6.9,6.9,45,0.00,CLR,,0.00,WeatherDisplay:10.37,2014-04-17 22:32:00,
2014-04-17 17:37:00,63.7,41.4,28.73,NNE,22,5.8,5.8,44,0.00,CLR,,0.00,WeatherDisplay:10.37,2014-04-17 22:37:00,
2014-04-17 17:42:00,63.0,41.3,28.73,NNE,22,6.9,6.9,45,0.00,CLR,,0.00,WeatherDisplay:10.37,2014-04-17 22:42:00,
2014-04-17 17:47:00,63.1,41.4,28.73,NNE,22,6.9,6.9,45,0.00,CLR,,0.00,WeatherDisplay:10.37,2014-04-17 22:47:00,
2014-04-17 17:52:00,62.4,41.3,28.72,NNE,22,6.9,6.9,46,0.00,CLR,,0.00,WeatherDisplay:10.37,2014-04-17 22:52:00,
2014-04-17 17:57:00,62.4,41.9,28.72,NNE,22,5.8,5.9,47,0.00,CLR,,0.00,WeatherDisplay:10.37,2014-04-17 22:57:00,
2014-04-17 18:02:00,62.2,41.2,28.73,North,360,6.9,6.9,46,0.00,CLR,,0.00,WeatherDisplay:10.37,2014-04-17 23:02:00,
2014-04-17 18:07:00,62.4,41.3,28.73,NNE,22,4.6,4.6,46,0.00,CLR,,0.00,WeatherDisplay:10.37,2014-04-17 23:07:00,
2014-04-17 18:12:00,62.6,41.5,28.73,NE,45,5.8,5.8,46,0.00,CLR,,0.00,WeatherDisplay:10.37,2014-04-17 23:12:00,
2014-04-17 18:17:00,62.1,41.1,28.73,NNE,22,6.3,6.3,46,0.00,CLR,,0.00,WeatherDisplay:10.37,2014-04-17 23:17:00,
2014-04-17 18:22:00,61.5,41.6,28.73,NNE,22,9.2,9.2,48,0.00,CLR,,0.00,WeatherDisplay:10.37,2014-04-17 23:22:00,
2014-04-17 18:27:00,61.3,42.5,28.73,NNE,22,8.1,8.1,50,0.00,CLR,,0.00,WeatherDisplay:10.37,2014-04-17 23:27:00,
2014-04-17 18:32:00,61.3,42.5,28.73,North,360,6.9,6.9,50,0.00,CLR,,0.00,WeatherDisplay:10.37,2014-04-17 23:32:00,
2014-04-17 18:37:00,61.2,42.9,28.74,NNE,22,8.1,8.1,51,0.00,CLR,,0.00,WeatherDisplay:10.37,2014-04-17 23:37:00,
2014-04-17 18:42:00,60.6,42.9,28.74,NE,45,8.1,8.1,52,0.00,CLR,,0.00,WeatherDisplay:10.37,2014-04-17 23:42:00,
2014-04-17 18:47:00,60.3,42.6,28.74,NNE,22,10.4,10.4,52,0.00,CLR,,0.00,WeatherDisplay:10.37,2014-04-17 23:47:00,
2014-04-17 18:52:00,60.1,42.9,28.75,NE,45,8.1,8.1,53,0.00,CLR,,0.00,WeatherDisplay:10.37,2014-04-17 23:52:00,
2014-04-17 18:57:00,59.7,42.0,28.75,North,360,8.1,8.1,52,0.00,CLR,,0.00,WeatherDisplay:10.37,2014-04-17 23:57:00,
2014-04-17 19:02:00,59.5,42.3,28.75,NE,45,7.3,7.3,53,0.00,CLR,,0.00,WeatherDisplay:10.37,2014-04-18 00:02:00,
2014-04-17 19:07:00,59.2,42.1,28.75,NNE,22,6.8,6.8,53,0.00,CLR,,0.00,WeatherDisplay:10.37,2014-04-18 00:07:00,
2014-04-17 19:12:00,59.2,42.1,28.75,NE,45,4.6,4.6,53,0.00,CLR,,0.00,WeatherDisplay:10.37,2014-04-18 00:12:00,
2014-04-17 19:17:00,58.3,42.2,28.75,NNE,22,12.7,12.7,55,0.00,CLR,,0.00,WeatherDisplay:10.37,2014-04-18 00:17:00,
2014-04-17 19:22:00,57.9,42.3,28.75,NNE,22,9.2,9.2,56,0.00,CLR,,0.00,WeatherDisplay:10.37,2014-04-18 00:22:00,
2014-04-17 19:27:00,57.7,42.1,28.76,North,360,9.2,9.2,56,0.00,CLR,,0.00,WeatherDisplay:10.37,2014-04-18 00:27:00,
2014-04-17 19:32:00,57.7,42.1,28.76,NNE,22,9.2,9.2,56,0.00,CLR,,0.00,WeatherDisplay:10.37,2014-04-18 00:32:00,
2014-04-17 19:37:00,57.6,42.5,28.76,NNE,22,8.1,8.1,57,0.00,CLR,,0.00,WeatherDisplay:10.37,2014-04-18 00:37:00,
2014-04-17 19:41:00,57.4,42.3,28.76,NNE,22,6.9,6.9,57,0.00,CLR,,0.00,WeatherDisplay:10.37,2014-04-18 00:41:00,
2014-04-17 19:46:00,56.8,42.2,28.76,NNE,22,5.8,5.8,58,0.00,CLR,,0.00,WeatherDisplay:10.37,2014-04-18 00:46:00,
2014-04-17 19:51:00,56.8,42.2,28.76,North,360,7.3,7.3,58,0.00,CLR,,0.00,WeatherDisplay:10.37,2014-04-18 00:51:00,
2014-04-17 19:56:00,56.7,42.1,28.76,NNW,338,8.1,8.1,58,0.00,CLR,,0.00,WeatherDisplay:10.37,2014-04-18 00:56:00,
2014-04-17 20:01:00,56.7,42.5,28.75,NNE,22,8.1,8.1,59,0.00,CLR,,0.00,WeatherDisplay:10.37,2014-04-18 01:01:00,
2014-04-17 20:06:00,56.5,42.3,28.75,NE,45,5.8,6.0,59,0.00,CLR,,0.00,WeatherDisplay:10.37,2014-04-18 01:06:00,
2014-04-17 20:08:00,56.5,42.3,28.75,NNE,22,5.8,5.8,59,0.00,CLR,,0.00,WeatherDisplay:10.37,2014-04-18 01:08:00,
2014-04-17 20:13:00,56.1,42.4,28.76,NNE,22,5.8,5.8,60,0.00,CLR,,0.00,WeatherDisplay:10.37,2014-04-18 01:13:00,
2014-04-17 20:18:00,56.1,42.4,28.76,North,360,6.9,6.9,60,0.00,CLR,,0.00,WeatherDisplay:10.37,2014-04-18 01:18:00,
2014-04-17 20:23:00,56.1,42.4,28.76,NNE,22,6.9,6.9,60,0.00,CLR,,0.00,WeatherDisplay:10.37,2014-04-18 01:23:00,
2014-04-17 20:28:00,55.8,42.5,28.75,North,360,5.8,5.8,61,0.00,CLR,,0.00,WeatherDisplay:10.37,2014-04-18 01:28:00,
2014-04-17 20:33:00,55.6,42.4,28.75,NE,45,5.8,5.8,61,0.00,CLR,,0.00,WeatherDisplay:10.37,2014-04-18 01:33:00,
2014-04-17 20:38:00,55.6,42.8,28.75,NNE,22,4.6,4.6,62,0.00,CLR,,0.00,WeatherDisplay:10.37,2014-04-18 01:38:00,
2014-04-17 20:43:00,55.6,42.8,28.75,NNE,22,4.6,4.6,62,0.00,CLR,,0.00,WeatherDisplay:10.37,2014-04-18 01:43:00,
2014-04-17 20:48:00,55.6,42.4,28.76,NNW,338,4.6,4.6,61,0.00,CLR,,0.00,WeatherDisplay:10.37,2014-04-18 01:48:00,
2014-04-17 20:53:00,55.6,42.8,28.76,NNE,22,4.6,4.6,62,0.00,CLR,,0.00,WeatherDisplay:10.37,2014-04-18 01:53:00,
2014-04-17 20:58:00,55.6,42.4,28.76,NNW,338,4.6,4.6,61,0.00,CLR,,0.00,WeatherDisplay:10.37,2014-04-18 01:58:00,
2014-04-17 21:03:00,55.6,42.8,28.77,NNE,22,3.5,3.5,62,0.00,CLR,,0.00,WeatherDisplay:10.37,2014-04-18 02:03:00,
2014-04-17 21:08:00,55.4,42.6,28.77,NNW,338,4.6,4.6,62,0.00,CLR,,0.00,WeatherDisplay:10.37,2014-04-18 02:08:00,
2014-04-17 21:13:00,55.4,42.6,28.76,NNE,22,3.7,3.7,62,0.00,CLR,,0.00,WeatherDisplay:10.37,2014-04-18 02:13:00,
2014-04-17 21:18:00,55.4,42.6,28.76,North,360,3.5,3.5,62,0.00,CLR,,0.00,WeatherDisplay:10.37,2014-04-18 02:18:00,
2014-04-17 21:23:00,55.2,42.8,28.76,North,360,3.5,3.5,63,0.00,CLR,,0.00,WeatherDisplay:10.37,2014-04-18 02:23:00,
2014-04-17 21:28:00,55.0,42.6,28.76,North,360,3.2,3.2,63,0.00,CLR,,0.00,WeatherDisplay:10.37,2014-04-18 02:28:00,
2014-04-17 21:33:00,55.0,43.0,28.76,North,360,3.5,3.5,64,0.00,CLR,,0.00,WeatherDisplay:10.37,2014-04-18 02:33:00,
2014-04-17 21:38:00,54.9,42.9,28.76,North,360,3.5,3.5,64,0.00,CLR,,0.00,WeatherDisplay:10.37,2014-04-18 02:38:00,
2014-04-17 21:43:00,54.9,42.9,28.76,North,360,2.2,2.2,64,0.00,CLR,,0.00,WeatherDisplay:10.37,2014-04-18 02:43:00,
2014-04-17 21:48:00,54.9,43.4,28.76,NNW,338,1.7,1.7,65,0.00,CLR,,0.00,WeatherDisplay:10.37,2014-04-18 02:48:00,
2014-04-17 21:53:00,54.9,42.9,28.76,NNE,22,3.5,3.5,64,0.00,CLR,,0.00,WeatherDisplay:10.37,2014-04-18 02:53:00,
2014-04-17 21:58:00,54.9,42.9,28.76,NNW,338,3.5,3.5,64,0.00,CLR,,0.00,WeatherDisplay:10.37,2014-04-18 02:58:00,
2014-04-17 22:03:00,54.7,42.8,28.76,North,360,3.5,3.5,64,0.00,CLR,,0.00,WeatherDisplay:10.37,2014-04-18 03:03:00,
2014-04-17 22:08:00,54.5,42.6,28.76,NNE,22,2.3,2.3,64,0.00,CLR,,0.00,WeatherDisplay:10.37,2014-04-18 03:08:00,
2014-04-17 22:13:00,54.3,42.8,28.77,NE,45,2.7,2.7,65,0.00,CLR,,0.00,WeatherDisplay:10.37,2014-04-18 03:13:00,
2014-04-17 22:18:00,54.1,43.0,28.77,NNE,22,2.3,2.3,66,0.00,CLR,,0.00,WeatherDisplay:10.37,2014-04-18 03:18:00,
2014-04-17 22:23:00,54.0,42.9,28.77,NNW,338,1.7,1.8,66,0.00,CLR,,0.00,WeatherDisplay:10.37,2014-04-18 03:23:00,
2014-04-17 22:28:00,53.4,42.7,28.77,NE,45,2.7,2.7,67,0.00,CLR,,0.00,WeatherDisplay:10.37,2014-04-18 03:28:00,
2014-04-17 22:33:00,53.1,42.8,28.77,NNE,22,2.7,2.7,68,0.00,CLR,,0.00,WeatherDisplay:10.37,2014-04-18 03:33:00,
2014-04-17 22:38:00,52.9,42.6,28.77,NNE,22,2.3,2.3,68,0.00,CLR,,0.00,WeatherDisplay:10.37,2014-04-18 03:38:00,
2014-04-17 22:43:00,52.5,42.2,28.77,NNE,22,1.7,1.7,68,0.00,CLR,,0.00,WeatherDisplay:10.37,2014-04-18 03:43:00,
2014-04-17 22:48:00,52.2,42.0,28.78,NNE,22,2.7,2.7,68,0.00,CLR,,0.00,WeatherDisplay:10.37,2014-04-18 03:48:00,
2014-04-17 22:53:00,51.6,41.8,28.78,NNE,22,2.3,2.3,69,0.00,CLR,,0.00,WeatherDisplay:10.37,2014-04-18 03:53:00,
2014-04-17 22:58:00,51.6,41.8,28.78,NE,45,2.7,2.7,69,0.00,CLR,,0.00,WeatherDisplay:10.37,2014-04-18 03:58:00,
2014-04-17 23:01:00,51.6,41.8,28.78,NNE,22,2.7,2.7,69,0.00,CLR,,0.00,WeatherDisplay:10.37,2014-04-18 04:01:00,
2014-04-17 23:02:00,51.6,41.8,28.78,NE,45,2.3,2.3,69,0.00,CLR,,0.00,WeatherDisplay:10.37,2014-04-18 04:02:00,
2014-04-17 23:03:00,51.6,41.8,28.78,NE,45,1.2,0.0,69,0.00,CLR,,0.00,WeatherDisplay:10.37,2014-04-18 04:03:00,
2014-04-17 23:08:00,51.3,41.5,28.78,NNE,22,2.7,2.7,69,0.00,CLR,,0.00,WeatherDisplay:10.37,2014-04-18 04:08:00,
2014-04-17 23:13:00,51.3,41.5,28.78,NW,315,1.2,1.2,69,0.00,CLR,,0.00,WeatherDisplay:10.37,2014-04-18 04:13:00,